Content
SEND FEEDBACK

Daily
Averages
Monthly
Summary
Australia

PINK LILY, QUEENSLAND


Home > Oceania > Australia > Queensland
Elevation: 32 feet     Latitude: 23 22S     Longitude: 150 28E

WEATHER
 
SELECT A DAY
Number of Records: 282,086;   Date Range: 2/21/97 - 8/31/14
 
SHARE

PRINT THIS DATA

[ ← Previous Day ]
WEATHER ALMANAC - FEBRUARY 13, 2013
[ Next Day → ]
[ °C ]   °F
Weather ElementAverageHighLow
Temperature77.8 °F86 °F (3:00 pm)73 °F (4:00 am)
Dewpoint64.7 °F68 °F (7:58 am)55.4 °F (4:30 pm)
Humidity62.9 %83 % (7:58 am)30 % (4:00 pm)
Barometer29.93 in29.98 in (9:30 pm)29.89 in (12:30 am)
Wind Speed12 mph17.3 mph (10:35 am)
Wind Gust29.9 mph (10:35 am)
Weather ElementAverage
Visibility7.8 mi
Wind DirectionESE (116.5 °)

Weather ElementTotal
Precipitation---
Cooling Degree Days14.5 (Base 65)
Growing Degree Days29.5 (Base 50)
Averaged from 65 records on February 13, 2013
WEATHER CONDITIONS BREAKOUT
WIND DIRECTION BREAKOUT
WEATHER BY HOUR - FEBRUARY 13, 2013
[ °C ]   °F
Local TimeTemperatureDewpointHumidityBarometerVisibilityWind DirectionWind SpeedGust SpeedPrecipitationEventsConditions
12:00 AM75.2 °F62.6 °F65 %29.92 in6.2 miSSE (150°)8.1 mph
12:30 AM75.2 °F60.8 °F61 %29.89 in6.2 miSE (140°)10.4 mph
1:00 AM75.0 °F61.0 °F53 %29.90 inSE (140°)13.8 mph
1:00 AM75.2 °F60.8 °F61 %29.89 in6.2 miSE (140°)13.8 mph
1:30 AM75.2 °F62.6 °F65 %29.89 in6.2 miSE (140°)12.7 mph
2:00 AM75.2 °F62.6 °F65 %29.89 in6.2 miSE (130°)8.1 mphScattered Clouds
2:30 AM75.2 °F60.8 °F61 %29.89 in6.2 miSSE (150°)9.2 mphScattered Clouds
3:00 AM73.4 °F62.6 °F69 %29.89 in6.2 miSE (130°)9.2 mphScattered Clouds
3:00 AM74.0 °F62.0 °F57 %29.89 inSE (130°)9.2 mph
3:30 AM73.4 °F62.6 °F69 %29.89 in6.2 miSE (140°)8.1 mphScattered Clouds
4:00 AM73.0 °F63.0 °F64 %29.89 inSE (130°)8.1 mph
4:00 AM73.4 °F62.6 °F69 %29.89 in6.2 miSE (130°)8.1 mphScattered Clouds
4:30 AM73.4 °F64.4 °F73 %29.89 in6.2 miESE (120°)9.2 mphScattered Clouds
5:00 AM73.4 °F64.4 °F73 %29.89 in6.2 miSE (130°)8.1 mphMostly Cloudy
5:30 AM73.4 °F64.4 °F73 %29.89 in6.2 miSE (130°)9.2 mphOvercast
6:00 AM73.4 °F64.4 °F73 %29.89 in6.2 miSE (140°)9.2 mphScattered Clouds
6:00 AM74.0 °F65.0 °F65 %29.91 in25.0 miSE (140°)9.2 mphPartly Cloudy
6:30 AM73.4 °F64.4 °F73 %29.92 in6.2 miSE (130°)9.2 mphMostly Cloudy
7:00 AM74.0 °F65.0 °F67 %29.93 inSE (130°)9.2 mph
7:00 AM73.4 °F64.4 °F73 %29.92 in6.2 miSE (130°)9.2 mphMostly Cloudy
7:30 AM75.2 °F66.2 °F73 %29.92 in6.2 miSE (130°)11.5 mphMostly Cloudy
7:58 AM73.4 °F68.0 °F83 %29.95 in3.7 miSE (130°)12.7 mphRainLight Rain Showers
8:00 AM73.4 °F68.0 °F83 %29.95 in4.3 miSE (130°)12.7 mphRainLight Rain Showers
8:15 AM75.2 °F66.2 °F73 %29.95 in5.6 miSE (140°)11.5 mphMostly Cloudy
8:24 AM75.2 °F68.0 °F78 %29.95 in4.3 miSE (130°)10.4 mphRainLight Rain Showers
8:30 AM75.2 °F68.0 °F78 %29.95 in6.2 miSE (130°)11.5 mphMostly Cloudy
9:00 AM77.0 °F67.0 °F64 %29.96 in16.0 miESE (120°)15.0 mphMostly Cloudy
9:00 AM77.0 °F68.0 °F74 %29.95 in6.2 miESE (120°)15.0 mphMostly Cloudy
9:30 AM78.8 °F66.2 °F65 %29.95 in6.2 miESE (110°)15.0 mphMostly Cloudy
10:00 AM80.0 °F68.0 °F58 %29.96 inEast (100°)15.0 mph
10:00 AM80.6 °F68.0 °F65 %29.95 in6.2 miEast (100°)15.0 mphMostly Cloudy
10:35 AM80.6 °F66.2 °F61 %29.95 in6.2 miESE (110°)17.3 mph29.9 mphMostly Cloudy
11:00 AM78.8 °F66.2 °F65 %29.95 in6.2 miEast (100°)13.8 mphMostly Cloudy
11:30 AM78.8 °F68.0 °F69 %29.95 in6.2 miESE (110°)10.4 mphMostly Cloudy
12:00 PM79.0 °F68.0 °F62 %29.96 in16.0 miEast (100°)12.7 mphOvercast
12:00 PM78.8 °F68.0 °F69 %29.95 in6.2 miEast (90°)12.7 mphMostly Cloudy
12:30 PM80.6 °F68.0 °F65 %29.95 in6.2 miEast (100°)12.7 mphMostly Cloudy
1:00 PM82.0 °F67.0 °F52 %29.94 inEast (90°)13.8 mph
1:00 PM82.4 °F68.0 °F62 %29.92 in6.2 miEast (90°)13.8 mphMostly Cloudy
1:30 PM82.4 °F68.0 °F62 %29.92 in6.2 miENE (70°)11.5 mphMostly Cloudy
2:00 PM84.2 °F64.4 °F51 %29.92 in6.2 miEast (80°)12.7 mphMostly Cloudy
2:30 PM84.2 °F64.4 °F51 %29.89 in6.2 miEast (100°)15.0 mphScattered Clouds
3:00 PM85.0 °F64.0 °F40 %29.91 in25.0 miEast (90°)13.8 mphPartly Cloudy
3:00 PM86.0 °F64.4 °F48 %29.89 in6.2 miEast (90°)13.8 mphScattered Clouds
3:30 PM84.2 °F60.8 °F45 %29.89 in6.2 miEast (90°)16.1 mphScattered Clouds
4:00 PM85.0 °F58.0 °F30 %29.90 inESE (110°)15.0 mph
4:00 PM84.2 °F59.0 °F42 %29.89 in6.2 miESE (110°)15.0 mphScattered Clouds
4:30 PM84.2 °F55.4 °F37 %29.89 in6.2 miEast (100°)15.0 mphScattered Clouds
5:00 PM84.2 °F59.0 °F42 %29.89 in6.2 miEast (100°)15.0 mphScattered Clouds
5:30 PM82.4 °F62.6 °F51 %29.89 in6.2 miEast (100°)16.1 mphPartly Cloudy
6:00 PM81.0 °F63.0 °F44 %29.92 in25.0 miEast (100°)13.8 mphPartly Cloudy
6:00 PM80.6 °F62.6 °F54 %29.92 in6.2 miEast (90°)13.8 mphPartly Cloudy
6:30 PM80.6 °F64.4 °F58 %29.92 in6.2 miEast (100°)15.0 mphPartly Cloudy
7:00 PM78.8 °F66.2 °F65 %29.92 in6.2 miESE (110°)15.0 mphPartly Cloudy
7:30 PM78.8 °F66.2 °F65 %29.95 in6.2 miESE (110°)12.7 mphPartly Cloudy
8:00 PM78.8 °F66.2 °F65 %29.95 inESE (110°)11.5 mphClear
8:30 PM77.0 °F66.2 °F69 %29.95 in6.2 miESE (120°)10.4 mph
9:00 PM77.0 °F66.2 °F69 %29.95 in6.2 miESE (120°)11.5 mphPartly Cloudy
9:00 PM77.0 °F66.0 °F60 %29.97 in25.0 miESE (120°)11.5 mphPartly Cloudy
9:30 PM77.0 °F66.2 °F69 %29.98 in6.2 miESE (120°)10.4 mphPartly Cloudy
10:00 PM77.0 °F67.0 °F63 %29.98 inESE (120°)10.4 mph
10:00 PM77.0 °F66.2 °F69 %29.98 in6.2 miESE (120°)10.4 mphPartly Cloudy
10:30 PM77.0 °F66.2 °F69 %29.98 in6.2 miESE (120°)10.4 mphPartly Cloudy
11:00 PM75.2 °F66.2 °F73 %29.98 in6.2 miESE (120°)9.2 mph
11:30 PM77.0 °F66.2 °F69 %29.95 in6.2 miESE (120°)12.7 mphScattered Clouds
Hourly data recorded from YBRK, located miles away from Pink Lily, Queensland







STORIES FROM OUR PARTNERS